Change the Weather History Date:

Wednesday, September 4, 2013

  Actual Average Record
Temperature  
Mean Temperature 73 °F -  
Max Temperature 82 °F 79 °F 95 °F (2008)
Min Temperature 64 °F 61 °F 48 °F (1997)
Cooling Degree Days 8    
Growing Degree Days 23 (Base 50)    
Moisture  
Dew Point 56 °F    
Average Humidity 58    
Maximum Humidity 78    
Minimum Humidity 39    
Precipitation  
Precipitation 0.00 in - - ()
Sea Level Pressure  
Sea Level Pressure 30.00 in    
Wind  
Wind Speed 7 mph (WNW)    
Max Wind Speed 14 mph    
Max Gust Speed 16 mph    
Visibility 10 miles    
Events      
Averages and records for this station are not official NWS values.
T = Trace of Precipitation, MM = Missing Value Source: NWS Daily Summary

Daily Weather History Graph

Daily Weather History Graph

Search for Another Location

Airport or City:

Trip Planner

Search our weather history database for the weather conditions in past years. The results will help you decide how hot, cold, wet, or windy it might be!

Date:

Astronomy

Sep. 04, 2013 Rise Set
Actual Time 6:30 AM EDT 7:26 PM EDT
Civil Twilight 6:03 AM EDT 7:54 PM EDT
Nautical Twilight 5:30 AM EDT 8:26 PM EDT
Astronomical Twilight 4:56 AM EDT 9:00 PM EDT
Moon 5:40 AM EDT (9/4) 6:44 PM EDT (9/4)
Length of Visible Light 13h 50m
Length of Day
12h 55m
Waning Crescent, 1% of the Moon is Illuminated
Sep 4
Waning Crescent
Sep 5
New
Sep 12
First Quarter
Sep 19
Full
Sep 26
Last Quarter

Hourly Weather History & Observations

Time (EDT) Temp. Heat Index Dew Point Humidity Pressure Visibility Wind Dir Wind Speed Gust Speed Precip Events Conditions
12:54 AM 68.0 °F - 55.9 °F 65% 29.93 in 10.0 mi NW 8.1 mph - N/A   Clear
1:54 AM 66.9 °F - 55.9 °F 68% 29.94 in 10.0 mi NW 6.9 mph - N/A   Clear
2:54 AM 66.0 °F - 55.9 °F 70% 29.96 in 10.0 mi WNW 3.5 mph - N/A   Clear
3:54 AM 64.9 °F - 55.9 °F 73% 29.96 in 10.0 mi Calm Calm - N/A   Clear
4:54 AM 64.0 °F - 57.0 °F 78% 29.98 in 10.0 mi WNW 5.8 mph - N/A   Clear
5:54 AM 64.0 °F - 57.0 °F 78% 29.99 in 10.0 mi NW 8.1 mph - N/A   Clear
6:54 AM 64.0 °F - 57.0 °F 78% 30.01 in 10.0 mi NW 8.1 mph - N/A   Clear
7:54 AM 66.0 °F - 57.9 °F 75% 30.04 in 10.0 mi NW 8.1 mph - N/A   Clear
8:54 AM 70.0 °F - 57.9 °F 65% 30.05 in 10.0 mi Variable 4.6 mph - N/A   Clear
9:54 AM 73.0 °F - 57.0 °F 57% 30.05 in 10.0 mi NNW 6.9 mph - N/A   Clear
10:54 AM 75.0 °F - 55.0 °F 50% 30.04 in 10.0 mi NW 9.2 mph - N/A   Clear
11:54 AM 77.0 °F - 55.9 °F 48% 30.04 in 10.0 mi NW 9.2 mph - N/A   Clear
12:54 PM 78.1 °F - 55.9 °F 46% 30.03 in 10.0 mi NW 8.1 mph - N/A   Clear
1:54 PM 81.0 °F 80.8 °F 55.9 °F 42% 30.02 in 10.0 mi West 12.7 mph 16.1 mph N/A   Clear
2:54 PM 81.0 °F 80.7 °F 55.0 °F 41% 30.01 in 10.0 mi West 10.4 mph - N/A   Clear
3:54 PM 82.0 °F 81.4 °F 55.0 °F 39% 30.00 in 10.0 mi WSW 12.7 mph - N/A   Clear
4:54 PM 81.0 °F 80.7 °F 55.0 °F 41% 29.99 in 10.0 mi West 6.9 mph - N/A   Clear
5:54 PM 81.0 °F 80.5 °F 54.0 °F 39% 29.99 in 10.0 mi WNW 13.8 mph - N/A   Clear
6:54 PM 78.1 °F - 55.0 °F 45% 30.00 in 10.0 mi West 8.1 mph - N/A   Clear
7:54 PM 75.0 °F - 55.0 °F 50% 30.00 in 10.0 mi WSW 4.6 mph - N/A   Clear
8:54 PM 71.1 °F - 57.0 °F 61% 30.01 in 10.0 mi Calm Calm - N/A   Clear
9:54 PM 72.0 °F - 55.9 °F 57% 30.01 in 10.0 mi WSW 4.6 mph - N/A   Clear
10:54 PM 70.0 °F - 57.0 °F 63% 30.02 in 10.0 mi WSW 5.8 mph - N/A   Clear
11:54 PM 69.1 °F - 59.0 °F 70% 30.01 in 10.0 mi SW 3.5 mph - N/A   Clear